Location: L�tisburg
(47.3947°N, 9.0820°E)
Time: 03:38:36
(UTC+00:00)

Gbstr 26 Del rocket - Pass Details

Date: 03 March 2021
Orbit: 492 x 1264 km, 51.8° (Epoch: 16 April)

Event Time Altitude Azimuth Distance (km) Brightness Sun altitude
Rises 19:54:32 0° 288° (WNW) 2,936 7.8 -27.8°
Reaches altitude 10° 19:56:40 10° 293° (WNW) 2,122 6.8 -28.2°
Enters shadow 20:01:08 59° 351° (N) 899 3.9 -28.8°
